TimeCEST,TemperatureF,Dew PointF,Humidity,Sea Level PressureIn,VisibilityMPH,Wind Direction,Wind SpeedMPH,Gust SpeedMPH,PrecipitationIn,Events,Conditions,WindDirDegrees,DateUTC
12:20 AM,68.0,62.6,83,30.04,5.0,NNE,5.8,-,N/A,,Partly Cloudy,30,2013-07-04 22:20:00
12:50 AM,69.8,60.8,73,30.04,5.0,North,5.8,-,N/A,,Partly Cloudy,10,2013-07-04 22:50:00
1:20 AM,68.0,60.8,78,30.04,5.0,NNE,3.5,-,N/A,,Unknown,30,2013-07-04 23:20:00
1:50 AM,69.8,60.8,73,30.04,5.0,NNE,5.8,-,N/A,,Unknown,20,2013-07-04 23:50:00
2:20 AM,69.8,60.8,73,30.01,5.0,North,5.8,-,N/A,,Unknown,350,2013-07-05 00:20:00
2:50 AM,69.8,60.8,73,30.01,5.0,North,5.8,-,N/A,,Unknown,350,2013-07-05 00:50:00
3:20 AM,68.0,60.8,78,30.01,5.0,NNW,4.6,-,N/A,,Unknown,340,2013-07-05 01:20:00
3:50 AM,69.8,60.8,73,30.01,5.0,NNW,5.8,-,N/A,,Unknown,330,2013-07-05 01:50:00
4:20 AM,68.0,60.8,78,30.01,5.0,NNW,6.9,-,N/A,,Unknown,340,2013-07-05 02:20:00
4:50 AM,68.0,60.8,78,30.01,-9999.0,North,5.8,-,N/A,,Clear,10,2013-07-05 02:50:00
5:20 AM,68.0,60.8,78,30.01,-9999.0,Variable,1.2,-,N/A,,Clear,0,2013-07-05 03:20:00
5:50 AM,64.4,59.0,83,30.04,-9999.0,Variable,2.3,-,N/A,,Clear,0,2013-07-05 03:50:00
6:20 AM,68.0,60.8,78,30.04,-9999.0,NNW,2.3,-,N/A,,Clear,330,2013-07-05 04:20:00
6:50 AM,71.6,60.8,69,30.04,-9999.0,North,3.5,-,N/A,,Clear,350,2013-07-05 04:50:00
7:20 AM,71.6,60.8,69,30.04,-9999.0,North,4.6,-,N/A,,Clear,350,2013-07-05 05:20:00
7:50 AM,73.4,60.8,65,30.04,-9999.0,North,5.8,-,N/A,,Clear,10,2013-07-05 05:50:00
8:20 AM,75.2,60.8,61,30.04,-9999.0,North,6.9,-,N/A,,Clear,360,2013-07-05 06:20:00
8:50 AM,75.2,59.0,57,30.04,-9999.0,NNE,5.8,-,N/A,,Clear,20,2013-07-05 06:50:00
9:20 AM,78.8,59.0,51,30.04,-9999.0,North,5.8,-,N/A,,Clear,360,2013-07-05 07:20:00
9:50 AM,80.6,59.0,48,30.04,-9999.0,NNE,8.1,-,N/A,,Clear,20,2013-07-05 07:50:00
10:20 AM,80.6,60.8,51,30.04,-9999.0,NE,8.1,-,N/A,,Clear,40,2013-07-05 08:20:00
10:50 AM,82.4,59.0,45,30.06,-9999.0,NNE,5.8,-,N/A,,Clear,20,2013-07-05 08:50:00
11:20 AM,82.4,59.0,45,30.04,-9999.0,NE,8.1,-,N/A,,Clear,40,2013-07-05 09:20:00
11:50 AM,84.2,60.8,45,30.04,-9999.0,North,9.2,-,N/A,,Clear,10,2013-07-05 09:50:00
12:20 PM,84.2,59.0,42,30.04,6.2,North,9.2,-,N/A,,Partly Cloudy,360,2013-07-05 10:20:00
12:50 PM,86.0,60.8,43,30.04,6.2,NNE,9.2,-,N/A,,Partly Cloudy,30,2013-07-05 10:50:00
1:20 PM,87.8,57.2,35,30.04,6.2,NNE,10.4,-,N/A,,Scattered Clouds,20,2013-07-05 11:20:00
1:50 PM,89.6,53.6,29,30.04,6.2,NNE,15.0,-,N/A,,Scattered Clouds,30,2013-07-05 11:50:00
2:50 PM,89.6,51.8,27,30.04,6.2,NNE,13.8,-,N/A,,Scattered Clouds,30,2013-07-05 12:50:00
3:20 PM,89.6,51.8,27,30.01,6.2,NNE,13.8,-,N/A,,Partly Cloudy,30,2013-07-05 13:20:00
3:50 PM,91.4,50.0,24,30.01,6.2,NNE,15.0,-,N/A,,Partly Cloudy,30,2013-07-05 13:50:00
4:20 PM,91.4,50.0,24,30.01,6.2,NE,13.8,25.3,N/A,,Partly Cloudy,40,2013-07-05 14:20:00
4:50 PM,89.6,48.2,24,30.01,6.2,NE,13.8,-,N/A,,Partly Cloudy,50,2013-07-05 14:50:00
5:20 PM,89.6,50.0,26,30.01,6.2,NE,13.8,-,N/A,,Partly Cloudy,40,2013-07-05 15:20:00
5:50 PM,89.6,50.0,26,30.01,6.2,NNE,13.8,-,N/A,,Partly Cloudy,30,2013-07-05 15:50:00
6:20 PM,87.8,50.0,27,30.01,6.2,NE,13.8,-,N/A,,Partly Cloudy,40,2013-07-05 16:20:00
6:50 PM,87.8,48.2,25,30.01,6.2,NE,13.8,-,N/A,,Partly Cloudy,40,2013-07-05 16:50:00
7:20 PM,86.0,48.2,27,30.04,6.2,NE,11.5,-,N/A,,Partly Cloudy,50,2013-07-05 17:20:00
7:50 PM,86.0,48.2,27,30.04,6.2,ENE,11.5,-,N/A,,Partly Cloudy,60,2013-07-05 17:50:00
8:20 PM,84.2,50.0,30,30.04,6.2,East,5.8,-,N/A,,Partly Cloudy,80,2013-07-05 18:20:00
8:50 PM,82.4,50.0,32,30.04,6.2,ENE,5.8,-,N/A,,Partly Cloudy,70,2013-07-05 18:50:00
9:20 PM,82.4,50.0,32,30.04,6.2,ENE,6.9,-,N/A,,Partly Cloudy,60,2013-07-05 19:20:00
9:50 PM,80.6,50.0,34,30.06,6.2,NE,6.9,-,N/A,,Partly Cloudy,40,2013-07-05 19:50:00
10:20 PM,80.6,50.0,34,30.06,6.2,Variable,6.9,-,N/A,,Partly Cloudy,0,2013-07-05 20:20:00
10:50 PM,78.8,50.0,36,30.06,6.2,North,4.6,-,N/A,,Partly Cloudy,360,2013-07-05 20:50:00
11:20 PM,78.8,50.0,36,30.06,6.2,Variable,1.2,-,N/A,,Partly Cloudy,0,2013-07-05 21:20:00
11:50 PM,77.0,48.2,36,30.06,6.2,NNE,5.8,-,N/A,,Partly Cloudy,30,2013-07-05 21:50:00